Powrót do katalogu

STARLINK-2383

AktywnyŁącznośćVLEO
NORAD 47802·PAYLOAD·🇺🇸 United States

Wystrzelony Mar 11, 2021 z Cape Canaveral Space Force Station

Loading…

Następne Przeloty (najbliższe 24 godziny)

TLE

ŚwieżeSource: CelesTrak SupGP

Epoka: Sep 15, 2026, 02:36 UTC

1 47802C 21018R   26258.10881944 -.00000068  00000+0 -21964-5 0  2581
2 47802  53.1584  94.3456 0001305  72.2126 109.4841 15.31701503    13

Śledź STARLINK-2383 w czasie rzeczywistym z AllMySat

Download on the App Store